Location: Arnolds Mill
(42.3415°N, 73.5951°W)
Time: 11:45:50
(UTC+00:00)

BlueWalker 3 - Pass Details

Date: 30 June 2024
Orbit: 480 x 492 km, 53.2° (Epoch: 13 July)

Event Time Altitude Azimuth Distance (km) Brightness Sun altitude
Rises 02:41:38 0° 310° (NW) 2,543 6.9 -17.3°
Reaches altitude 10° 02:44:09 10° 325° (NW) 1,660 5.9 -17.6°
Maximum altitude 02:47:10 23° 19° (NNE) 1,078 4.0 -17.9°
Drops below altitude 10° 02:50:10 10° 73° (ENE) 1,655 4.4 -18.2°
Enters shadow 02:50:19 - 74° (ENE) 1,700 4.5 -18.2°
